FLOCK 1C-1 (40027 NORAD) Tracking and Keplerian Element Data

This shows tracking and keplerian element data for the satellite.

Feedback or suggestion? Click here.




ElementValue
Catalog40027
NameFLOCK 1C-1
Epoch Orbit31703
Epoch Day114.75376204
Epoch Year2020
RAAN43.8682
Inclination97.9398
Eccentricity0.0013817
Argument of Perigee112.7963
Mean Anonmoly247.4715
Mean Motion14.90110788
Decay Rate6.98E-06
L11 40027U 14033T 20114.75376204 .00000698 00000-0 78005-4 0 9993
L22 40027 97.9398 43.8682 0013817 112.7963 247.4715 14.90110788317033



Live tracking and technical data element details for FLOCK 1C-1 (NORAD 40027). FLOCK 1C-1 can be tracked NOW for your location showing map with azimuth and elevation plus other details from your city location.







IsCatalogInMostPopularTable: catalog: 40027, numindb: 340
Update: records affected: 1



GetName: 40027 FLOCK 1C-1

Hit Count: updated at: Fri, 16 May 2025 10:31:25 GMT